THY146 LBWN-LTFJ

Flight info

Callsign THY146
Flight time 0h 50m
Altitude 27000
Route IVGOT4P/27 IVGOT T68 RIXEN L620 GINLI
Aircraft A320/M-SDE3FGHIRWY/LB1

Departure

Time 2026-05-08 15:07
Airport Varna Airport (LBWN)

Arrival

Time 2026-05-08 15:57
Airport Istanbul Sabiha Gökçen International Airport (LTFJ)
Time Latitude Longitude Altitude Speed Heading
2026-05-08 14:46 43.23629 27.82437 219 ft 0 kts 249°
2026-05-08 14:47 43.23629 27.82438 219 ft 0 kts 249°
2026-05-08 14:59 43.23629 27.82437 219 ft 0 kts 249°
2026-05-08 14:59 43.23610 27.82429 219 ft 3 kts 193°
2026-05-08 14:59 43.23588 27.82405 228 ft 5 kts 240°
2026-05-08 15:00 43.23588 27.82350 219 ft 7 kts 275°
2026-05-08 15:00 43.23579 27.82277 221 ft 9 kts 234°
2026-05-08 15:00 43.23526 27.82254 218 ft 8 kts 189°
2026-05-08 15:00 43.23484 27.82206 226 ft 9 kts 254°
2026-05-08 15:01 43.23482 27.82136 218 ft 9 kts 274°
2026-05-08 15:01 43.23490 27.82046 217 ft 11 kts 277°
2026-05-08 15:01 43.23499 27.81939 221 ft 12 kts 277°
2026-05-08 15:01 43.23511 27.81819 218 ft 14 kts 277°
2026-05-08 15:02 43.23522 27.81687 216 ft 14 kts 277°
2026-05-08 15:02 43.23533 27.81564 215 ft 13 kts 277°
2026-05-08 15:02 43.23544 27.81440 219 ft 11 kts 277°
2026-05-08 15:02 43.23554 27.81331 214 ft 11 kts 277°
2026-05-08 15:03 43.23563 27.81222 214 ft 11 kts 276°
2026-05-08 15:03 43.23571 27.81106 217 ft 12 kts 275°
2026-05-08 15:03 43.23570 27.80993 219 ft 12 kts 255°
2026-05-08 15:03 43.23519 27.80924 216 ft 8 kts 201°
2026-05-08 15:04 43.23515 27.80922 217 ft 0 kts 199°
2026-05-08 15:04 43.23511 27.80921 216 ft 2 kts 196°
2026-05-08 15:05 43.23492 27.80920 213 ft 4 kts 177°
2026-05-08 15:05 43.23459 27.80934 213 ft 6 kts 157°
2026-05-08 15:05 43.23408 27.80970 212 ft 11 kts 150°
2026-05-08 15:05 43.23340 27.81054 212 ft 14 kts 123°
2026-05-08 15:06 43.23322 27.81122 215 ft 0 kts 101°
2026-05-08 15:06 43.23313 27.81209 213 ft 27 kts 97°
2026-05-08 15:06 43.23254 27.81871 217 ft 110 kts 97°
2026-05-08 15:06 43.23132 27.83185 387 ft 155 kts 98°
2026-05-08 15:07 43.22989 27.84663 1000 ft 157 kts 97°
2026-05-08 15:07 43.22859 27.86151 1654 ft 157 kts 99°
2026-05-08 15:07 43.22726 27.87651 2268 ft 159 kts 100°
2026-05-08 15:07 43.22587 27.89217 2516 ft 178 kts 99°
2026-05-08 15:08 43.22421 27.91053 2647 ft 209 kts 99°
2026-05-08 15:08 43.22294 27.92449 2849 ft 226 kts 99°
2026-05-08 15:08 43.22020 27.95483 3418 ft 259 kts 99°
2026-05-08 15:08 43.21792 27.98031 4067 ft 275 kts 98°
2026-05-08 15:09 43.21559 28.00662 4921 ft 280 kts 98°
2026-05-08 15:09 43.21320 28.03328 5764 ft 284 kts 98°
2026-05-08 15:09 43.21075 28.06033 6622 ft 287 kts 98°
2026-05-08 15:09 43.20826 28.08757 7442 ft 289 kts 98°
2026-05-08 15:10 43.20574 28.11504 8260 ft 292 kts 98°
2026-05-08 15:10 43.20402 28.13374 8815 ft 294 kts 98°
2026-05-08 15:10 43.20149 28.16135 9614 ft 297 kts 98°
2026-05-08 15:10 43.19888 28.18967 10284 ft 305 kts 98°
2026-05-08 15:11 43.19611 28.21959 10483 ft 328 kts 98°
2026-05-08 15:11 43.19315 28.25168 10619 ft 351 kts 98°
2026-05-08 15:11 43.18999 28.28571 10914 ft 366 kts 97°
2026-05-08 15:11 43.18675 28.32058 11508 ft 371 kts 97°
2026-05-08 15:12 43.18346 28.35586 12167 ft 375 kts 97°
2026-05-08 15:12 43.17871 28.39109 12824 ft 377 kts 106°
2026-05-08 15:12 43.16919 28.42464 13478 ft 380 kts 117°
2026-05-08 15:12 43.15499 28.45518 14083 ft 382 kts 129°
2026-05-08 15:13 43.13783 28.48324 14650 ft 385 kts 131°
2026-05-08 15:13 43.11874 28.50897 15208 ft 387 kts 142°
2026-05-08 15:13 43.09615 28.52910 15756 ft 389 kts 154°
2026-05-08 15:13 43.07096 28.54276 16320 ft 390 kts 165°
2026-05-08 15:14 43.04429 28.55013 16911 ft 392 kts 172°
2026-05-08 15:14 43.01734 28.55624 17695 ft 387 kts 171°
2026-05-08 15:14 42.99173 28.56208 19174 ft 371 kts 172°
2026-05-08 15:14 42.96597 28.56797 19791 ft 384 kts 171°
2026-05-08 15:15 42.93909 28.57411 19912 ft 400 kts 171°
2026-05-08 15:15 42.91124 28.58047 20192 ft 410 kts 171°
2026-05-08 15:15 42.88295 28.58691 20614 ft 414 kts 171°
2026-05-08 15:15 42.85436 28.59338 21067 ft 418 kts 172°
2026-05-08 15:16 42.82553 28.59990 21506 ft 421 kts 172°
2026-05-08 15:16 42.79650 28.60646 21933 ft 424 kts 172°
2026-05-08 15:16 42.76724 28.61303 22339 ft 428 kts 172°
2026-05-08 15:16 42.73776 28.61964 22746 ft 431 kts 172°
2026-05-08 15:17 42.70811 28.62630 23141 ft 433 kts 172°
2026-05-08 15:17 42.67823 28.63305 23537 ft 436 kts 172°
2026-05-08 15:17 42.64855 28.63981 23858 ft 439 kts 172°
2026-05-08 15:17 42.61831 28.64667 24181 ft 441 kts 172°
2026-05-08 15:18 42.58795 28.65352 24522 ft 443 kts 172°
2026-05-08 15:18 42.55749 28.66037 24850 ft 445 kts 172°
2026-05-08 15:18 42.52687 28.66723 25166 ft 447 kts 172°
2026-05-08 15:18 42.49611 28.67410 25498 ft 449 kts 173°
2026-05-08 15:19 42.46521 28.68094 25812 ft 451 kts 173°
2026-05-08 15:19 42.43421 28.68779 26134 ft 453 kts 173°
2026-05-08 15:19 42.40302 28.69471 26464 ft 455 kts 173°
2026-05-08 15:19 42.37167 28.70171 26776 ft 457 kts 173°
2026-05-08 15:20 42.34026 28.70877 27013 ft 457 kts 173°
2026-05-08 15:20 42.30875 28.71589 27057 ft 461 kts 173°
2026-05-08 15:20 42.27711 28.72304 27056 ft 462 kts 173°
2026-05-08 15:20 42.24538 28.73013 27054 ft 462 kts 173°
2026-05-08 15:21 42.21359 28.73715 27058 ft 463 kts 173°
2026-05-08 15:21 42.18228 28.74402 27060 ft 463 kts 173°
2026-05-08 15:21 42.15047 28.75106 27060 ft 463 kts 173°
2026-05-08 15:21 42.11866 28.75813 27060 ft 463 kts 173°
2026-05-08 15:22 42.08683 28.76487 27060 ft 462 kts 176°
2026-05-08 15:22 42.05483 28.76718 27061 ft 460 kts 181°
2026-05-08 15:22 42.02279 28.76832 27060 ft 460 kts 181°
2026-05-08 15:22 41.99075 28.76959 27056 ft 460 kts 181°
2026-05-08 15:23 41.95873 28.77090 27054 ft 460 kts 181°
2026-05-08 15:23 41.92673 28.77223 27056 ft 460 kts 181°
2026-05-08 15:23 41.89475 28.77355 27054 ft 460 kts 181°
2026-05-08 15:23 41.86309 28.77486 27016 ft 461 kts 180°
2026-05-08 15:24 41.83058 28.77700 26763 ft 462 kts 179°
2026-05-08 15:24 41.79847 28.77999 26515 ft 463 kts 178°
2026-05-08 15:24 41.76643 28.78346 26264 ft 457 kts 178°
2026-05-08 15:24 41.73608 28.78718 26016 ft 431 kts 175°
2026-05-08 15:25 41.70732 28.79617 25777 ft 421 kts 163°
2026-05-08 15:25 41.68034 28.81256 25535 ft 421 kts 152°
2026-05-08 15:25 41.65650 28.83530 25295 ft 423 kts 141°
2026-05-08 15:25 41.63636 28.86392 25063 ft 424 kts 132°
2026-05-08 15:26 41.61776 28.89386 24827 ft 423 kts 132°
2026-05-08 15:26 41.59898 28.92395 24434 ft 421 kts 132°
2026-05-08 15:26 41.58025 28.95386 24064 ft 418 kts 132°
2026-05-08 15:26 41.56164 28.98358 23682 ft 416 kts 132°
2026-05-08 15:27 41.54312 29.01314 23252 ft 413 kts 132°
2026-05-08 15:27 41.52480 29.04241 22882 ft 410 kts 132°
2026-05-08 15:27 41.50639 29.07120 22508 ft 405 kts 136°
2026-05-08 15:27 41.48542 29.09582 22144 ft 399 kts 147°
2026-05-08 15:28 41.46184 29.11473 21774 ft 394 kts 156°
2026-05-08 15:28 41.43724 29.13064 21407 ft 391 kts 156°
2026-05-08 15:28 41.41285 29.14653 21045 ft 389 kts 156°
2026-05-08 15:28 41.38863 29.16236 20684 ft 387 kts 156°
2026-05-08 15:29 41.36474 29.17800 20397 ft 374 kts 156°
2026-05-08 15:29 41.34262 29.19419 20170 ft 355 kts 146°
2026-05-08 15:29 41.32523 29.21617 19726 ft 346 kts 127°
2026-05-08 15:29 41.31348 29.24395 19501 ft 345 kts 111°
2026-05-08 15:30 41.30807 29.27492 19263 ft 345 kts 94°
2026-05-08 15:30 41.30792 29.30681 19034 ft 344 kts 90°
2026-05-08 15:30 41.30815 29.33866 18695 ft 343 kts 90°
2026-05-08 15:30 41.30836 29.37032 18299 ft 342 kts 89°
2026-05-08 15:31 41.31131 29.40164 17884 ft 341 kts 75°
2026-05-08 15:31 41.31996 29.43076 17502 ft 338 kts 60°
2026-05-08 15:31 41.33369 29.45588 17126 ft 335 kts 45°
2026-05-08 15:31 41.35144 29.47560 16763 ft 332 kts 33°
2026-05-08 15:32 41.37049 29.49278 16396 ft 330 kts 33°
2026-05-08 15:32 41.38943 29.51005 16031 ft 329 kts 34°
2026-05-08 15:32 41.40822 29.52726 15660 ft 328 kts 34°
2026-05-08 15:32 41.42696 29.54446 15272 ft 327 kts 34°
2026-05-08 15:33 41.44570 29.56165 14887 ft 327 kts 34°
2026-05-08 15:33 41.46233 29.58211 14515 ft 326 kts 56°
2026-05-08 15:33 41.47133 29.60947 14122 ft 324 kts 81°
2026-05-08 15:33 41.47102 29.63899 13710 ft 320 kts 105°
2026-05-08 15:34 41.46172 29.66546 13377 ft 313 kts 126°
2026-05-08 15:34 41.44954 29.68914 12797 ft 308 kts 126°
2026-05-08 15:34 41.43737 29.71245 12393 ft 306 kts 126°
2026-05-08 15:34 41.42527 29.73550 12000 ft 302 kts 126°
2026-05-08 15:35 41.41338 29.75816 11627 ft 302 kts 126°
2026-05-08 15:35 41.40124 29.78133 11241 ft 300 kts 126°
2026-05-08 15:35 41.38970 29.80341 10972 ft 286 kts 126°
2026-05-08 15:35 41.37846 29.82497 10966 ft 277 kts 126°
2026-05-08 15:36 41.36879 29.84724 10969 ft 278 kts 117°
2026-05-08 15:36 41.36044 29.87010 10975 ft 278 kts 117°
2026-05-08 15:36 41.35198 29.89321 10975 ft 277 kts 117°
2026-05-08 15:36 41.34352 29.91628 10972 ft 277 kts 117°
2026-05-08 15:37 41.33503 29.93942 10975 ft 284 kts 117°
2026-05-08 15:37 41.32499 29.96181 10969 ft 283 kts 130°
2026-05-08 15:37 41.31184 29.98116 10964 ft 273 kts 135°
2026-05-08 15:37 41.29905 29.99921 10974 ft 265 kts 135°
2026-05-08 15:38 41.28642 30.01702 10976 ft 264 kts 135°
2026-05-08 15:38 41.27382 30.03479 10975 ft 263 kts 135°
2026-05-08 15:38 41.26141 30.05193 10970 ft 254 kts 140°
2026-05-08 15:38 41.24730 30.06570 10973 ft 250 kts 152°
2026-05-08 15:39 41.23213 30.07710 10979 ft 250 kts 152°
2026-05-08 15:39 41.21702 30.08854 10977 ft 250 kts 152°
2026-05-08 15:39 41.20212 30.09987 10978 ft 250 kts 152°
2026-05-08 15:39 41.18703 30.11137 10978 ft 250 kts 152°
2026-05-08 15:40 41.17184 30.12251 10976 ft 249 kts 157°
2026-05-08 15:40 41.15552 30.12981 10981 ft 247 kts 169°
2026-05-08 15:40 41.13874 30.13480 10978 ft 243 kts 169°
2026-05-08 15:40 41.12268 30.13962 10992 ft 229 kts 169°
2026-05-08 15:41 41.10769 30.14411 10996 ft 216 kts 169°
2026-05-08 15:41 41.09317 30.14846 10979 ft 212 kts 169°
2026-05-08 15:41 41.07878 30.15277 10980 ft 212 kts 169°
2026-05-08 15:41 41.06422 30.15545 10982 ft 210 kts 179°
2026-05-08 15:42 41.04961 30.15472 10984 ft 210 kts 186°
2026-05-08 15:42 41.03505 30.15331 10979 ft 210 kts 185°
2026-05-08 15:42 41.02051 30.15192 10981 ft 210 kts 185°
2026-05-08 15:42 41.00606 30.14942 10978 ft 208 kts 197°
2026-05-08 15:43 40.99303 30.14138 10983 ft 207 kts 216°
2026-05-08 15:43 40.98271 30.12822 10983 ft 207 kts 234°
2026-05-08 15:43 40.97613 30.11134 10982 ft 207 kts 252°
2026-05-08 15:43 40.97401 30.09273 10981 ft 209 kts 270°
2026-05-08 15:44 40.97623 30.07376 10991 ft 209 kts 281°
2026-05-08 15:44 40.97943 30.05490 10985 ft 210 kts 281°
2026-05-08 15:44 40.98261 30.03606 10982 ft 210 kts 281°
2026-05-08 15:44 40.98581 30.01714 10940 ft 211 kts 281°
2026-05-08 15:45 40.98907 29.99791 10486 ft 216 kts 281°
2026-05-08 15:45 40.99230 29.97886 10252 ft 209 kts 281°
2026-05-08 15:45 40.99545 29.96021 9993 ft 207 kts 281°
2026-05-08 15:45 40.99861 29.94146 9528 ft 213 kts 281°
2026-05-08 15:46 41.00182 29.92223 9134 ft 214 kts 280°
2026-05-08 15:46 41.00503 29.90304 8802 ft 213 kts 281°
2026-05-08 15:46 41.00822 29.88398 8474 ft 212 kts 280°
2026-05-08 15:46 41.01140 29.86500 8146 ft 211 kts 280°
2026-05-08 15:47 41.01458 29.84610 7841 ft 210 kts 280°
2026-05-08 15:47 41.01771 29.82737 7539 ft 207 kts 279°
2026-05-08 15:47 41.02081 29.80884 7222 ft 205 kts 279°
2026-05-08 15:47 41.02391 29.79017 6745 ft 212 kts 279°
2026-05-08 15:48 41.03006 29.75354 6397 ft 194 kts 278°
2026-05-08 15:48 41.03295 29.73622 6346 ft 192 kts 278°
2026-05-08 15:48 41.03583 29.71883 6132 ft 192 kts 278°
2026-05-08 15:49 41.03716 29.70138 5823 ft 189 kts 265°
2026-05-08 15:49 41.03507 29.68429 5484 ft 188 kts 251°
2026-05-08 15:49 41.02999 29.66847 5142 ft 186 kts 242°
2026-05-08 15:49 41.02446 29.65341 4799 ft 179 kts 243°
2026-05-08 15:50 41.01905 29.63861 4455 ft 177 kts 244°
2026-05-08 15:50 41.01376 29.62408 4143 ft 175 kts 244°
2026-05-08 15:50 41.00857 29.60986 3945 ft 168 kts 244°
2026-05-08 15:50 41.00377 29.59667 3971 ft 153 kts 244°
2026-05-08 15:51 40.99919 29.58409 3990 ft 150 kts 243°
2026-05-08 15:51 40.99466 29.57166 3992 ft 149 kts 244°
2026-05-08 15:51 40.99017 29.55935 3997 ft 147 kts 244°
2026-05-08 15:51 40.98584 29.54748 4021 ft 142 kts 243°
2026-05-08 15:52 40.98157 29.53580 4010 ft 141 kts 244°
2026-05-08 15:52 40.97730 29.52408 3976 ft 141 kts 244°
2026-05-08 15:52 40.97303 29.51239 3837 ft 140 kts 244°
2026-05-08 15:52 40.96878 29.50076 3655 ft 141 kts 244°
2026-05-08 15:53 40.96454 29.48919 3460 ft 140 kts 244°
2026-05-08 15:53 40.96031 29.47763 3248 ft 139 kts 244°
2026-05-08 15:53 40.95610 29.46612 3037 ft 138 kts 245°
2026-05-08 15:53 40.95191 29.45464 2826 ft 138 kts 245°
2026-05-08 15:54 40.94773 29.44323 2601 ft 137 kts 246°
2026-05-08 15:54 40.94357 29.43187 2409 ft 137 kts 246°
2026-05-08 15:54 40.93943 29.42058 2190 ft 136 kts 246°
2026-05-08 15:54 40.93530 29.40931 1983 ft 136 kts 248°
2026-05-08 15:55 40.93115 29.39801 1769 ft 135 kts 247°
2026-05-08 15:55 40.92306 29.37595 1353 ft 134 kts 245°
2026-05-08 15:55 40.91892 29.36467 1131 ft 135 kts 244°
2026-05-08 15:56 40.91481 29.35349 914 ft 138 kts 244°
2026-05-08 15:56 40.91066 29.34212 697 ft 138 kts 244°
2026-05-08 15:56 40.90649 29.33064 463 ft 137 kts 242°
2026-05-08 15:56 40.90235 29.31952 315 ft 126 kts 243°
2026-05-08 15:57 40.89954 29.31195 307 ft 49 kts 244°
2026-05-08 15:57 40.89862 29.30944 308 ft 28 kts 245°
2026-05-08 15:57 40.89810 29.30697 308 ft 28 kts 269°
2026-05-08 15:57 40.89823 29.30472 307 ft 24 kts 275°
2026-05-08 15:58 40.89823 29.30275 308 ft 22 kts 253°
2026-05-08 15:58 40.89780 29.30153 306 ft 22 kts 244°
2026-05-08 15:58 40.89734 29.30017 305 ft 13 kts 259°
2026-05-08 15:58 40.89796 29.29933 305 ft 14 kts 336°
2026-05-08 15:59 40.89853 29.29972 305 ft 10 kts 65°
2026-05-08 15:59 40.89884 29.29990 306 ft 5 kts 338°
2026-05-08 15:59 40.89891 29.29985 307 ft 0 kts 333°
2026-05-08 15:59 40.89897 29.29982 306 ft 2 kts 333°
2026-05-08 16:00 40.89898 29.29981 306 ft 0 kts 333°